Regional Weather Roundup
Issued by NWS

Home | Current Version | Previous Version | Graphics & Text | Print | Product List | Glossary On
Versions: 1 2 3 4 5 6 7 8 9 10 11 12 13 14 15 16 17 18 19 20 21 22 23 24 25 26 27
000
ASUS45 KTFX 281910
RWRMT
MONTANA REGIONAL WEATHER ROUNDUP
NATIONAL WEATHER SERVICE GREAT FALLS MT
1200 PM MST TUE FEB 28 2017

NOTE: "FAIR" INDICATES FEW OR NO CLOUDS BELOW 12000 FEET WITH NO
SIGNIFICANT WEATHER AND/OR OBSTRUCTIONS TO VISIBILITY.

MTZ001>007-043-282000-
WEST OF THE DIVIDE

CITY           SKY/WX    TMP DP  RH WIND       PRES   REMARKS
KALISPELL      CLOUDY    29  19  66 SW14      29.71R WCI  18
MISSOULA       FLURRIES  30  20  66 W15G26    29.77R WCI  19
BUTTE          CLOUDY    26  10  50 W14       29.64R WCI  14
MULLAN PASS    FLURRIES  15  10  80 SW9       29.65R WCI   3
ANACONDA         N/A     21  18  86 W5        29.68R VSB 1/4
DEER LODGE       N/A     23  18  80 N5        29.71R
EUREKA           N/A     23  16  74 NW6       29.77R WCI  16
HAMILTON         N/A     30  14  51 SW7       29.77R WCI  23
LIBBY            N/A     28  25  86 NW5       29.74R
PLAINS           N/A     33  14  45 SW22      29.81  WCI  21
RONAN            N/A     29  14  53 SW10      29.81R WCI  20
$$

MTZ008-052>055-282000-
SOUTHWEST MONTANA

CITY           SKY/WX    TMP DP  RH WIND       PRES   REMARKS
BOZEMAN        CLOUDY    34  10  37 SW18G32   29.66R WCI  23
DILLON         CLOUDY    30   8  39 SW16G25   29.67R WCI  19
W YELLOWSTONE  HAZE      16  10  79 SW20G25   29.70S VSB 3/4 WCI  -1
ENNIS          PTSUNNY   30   3  31 S14       29.71F WCI  20
$$

MTZ009-010-012-014-046-048-049-054-282000-
EAST SLOPES AND CENTRAL MONTANA

CITY           SKY/WX    TMP DP  RH WIND       PRES   REMARKS
CUT BANK       LGT SNOW  17  12  80 N9        29.67R WCI   6
GREAT FALLS    MOSUNNY   26  17  68 N9        29.64R WCI  17
MALMSTROM AFB  CLOUDY    21  18  88 N7        29.66R WCI  12
HELENA         CLOUDY    30  17  58 W13       29.68S WCI  20
AUGUSTA        PTSUNNY   16  15  98 NE14      29.61R WCI   1
BOWMANS CRNR   FLURRIES  27  17  65 SW18      29.59R WCI  14
CHOTEAU          N/A     21  16  79 NW9       29.68R WCI  11
CONRAD           N/A     20  14  77 NW6       29.73R WCI  12
POWER          PTSUNNY   19  16  87 N13       29.64R WCI   6
RAYNESFORD       N/A     30  14  52 W17G30    29.61R WCI  18
ULM              N/A     31  17  55 MISG      29.64R
$$

MTZ011-013-016-021-045-047-050-051-282000-
NORTH CENTRAL MONTANA

CITY           SKY/WX    TMP DP  RH WIND       PRES   REMARKS
HAVRE          CLOUDY    20  16  84 E15       29.71S WCI   6
LEWISTOWN      CLOUDY    30  14  51 SW17      29.61S WCI  18
N BAR RANCH      N/A     28  10  47 W10G16    29.62S WCI  19
CHINOOK          N/A     21  16  79 NE5       29.74R
DENTON           N/A     31  15  51 SW7       29.60R WCI  24
FORT BENTON      N/A     28  16  59 MISG      29.70R
GEYSER           N/A     29  16  56 W16G22    29.60R WCI  18
GRASS RANGE      N/A     32  14  48 NW9       29.59S WCI  24
JUDITH GAP     PTSUNNY   25  14  62 W15G24    29.61R WCI  13
ROY              N/A     26  18  72 MISG      29.62S
STANFORD         N/A     29  15  57 W15       29.59R WCI  17
WINIFRED         N/A     30  15  53 W8        29.62R WCI  22
$$

MTZ017>020-022>027-061-062-282000-
NORTHEAST MONTANA

CITY           SKY/WX    TMP DP  RH WIND       PRES   REMARKS
GLASGOW        CLOUDY    24  17  74 N3        29.71S
SIDNEY         CLOUDY    27  21  78 S10       29.78F WCI  17
WOLF POINT     CLOUDY    31  23  72 S7        29.73F WCI  24
PLENTYWOOD       N/A     19  16  86 SE8       29.76S WCI   9
POPLAR           N/A     28  19  69 SE10      29.75F WCI  19
SCOBEY           N/A     22  13  68 S3        29.73R
$$

MTZ028>42-056>058-282000-
SOUTHCENTRAL AND SOUTHEAST MONTANA

CITY           SKY/WX    TMP DP  RH WIND       PRES   REMARKS
BILLINGS       MOSUNNY   36  11  35 SW10      29.67S WCI  28
LIVINGSTON     CLOUDY    32   8  36 W17G29    29.64R WCI  21
MILES CITY     MOSUNNY   37  22  54 SE12      29.70F WCI  29
BIG TIMBER     SUNNY     32  10  40 W20G26    29.67S WCI  20
EKALAKA          N/A     26  20  78 SE5       29.71
FORSYTH          N/A     37  18  44 W6        29.68F
HARLOWTON        N/A     31  16  53 W28G33    29.62S WCI  17
LAUREL           N/A     36  10  34 S10       29.68S WCI  28
$$

REGIONAL REPORTS...DAKOTAS

CITY           SKY/WX    TMP DP  RH WIND       PRES   REMARKS
WILLISTON      CLOUDY    22  16  78 S14       29.80F WCI   9
MINOT          FLURRIES  14   8  77 E13       29.88F WCI   0
DICKINSON      CLOUDY    20  17  88 S10       29.76S WCI   9
BEACH            N/A    N/A N/A N/A MISG        N/A
CROSBY         LGT SNOW  19  18  93 S14       29.82F WCI   6
TIOGA          CLOUDY    16  16 100 S15       29.81F WCI   1
WATFORD CITY   CLOUDY    21  18  86 S13       29.80F WCI   9
BISMARCK       CLOUDY    23  15  71 E9        29.86F WCI  13
GRAND FORKS    MOSUNNY   20   8  60 N15       29.92F WCI   6
FARGO          PTSUNNY   29  23  78 N17       29.85S WCI  17
BUFFALO SD       N/A     24  19  81 CALM      29.69S
RAPID CITY     CLOUDY    27  21  78 N15       29.72F WCI  15
$$

REGIONAL REPORTS...WYOMING/IDAHO/WASHINGTON

CITY           SKY/WX    TMP DP  RH WIND       PRES   REMARKS
GILLETTE       MOSUNNY   36  11  35 W7        29.66F WCI  30
SHERIDAN       SUNNY     36  10  34 SE8G20    29.67S WCI  30
BUFFALO WY     SUNNY     30  12  47 SE6       29.65F WCI  24
CODY           CLOUDY    32   7  35 W15G28    29.67R WCI  22
YELLOWSTONE LA   N/A     16   7  67 W12G21    29.66R WCI   3
IDAHO FALLS    CLOUDY    24  20  84 SW16      29.85R WCI  11
SALMON         PTSUNNY   28  16  59 CALM      29.76R
BOISE          CLOUDY    36  25  64 NW9       29.97R WCI  29
SPOKANE        MOSUNNY   28  14  55 W15       29.89R WCI  16
$$

REGIONAL REPORTS...ALBERTA

CITY           SKY/WX    TMP DP  RH WIND       PRES   REMARKS
EDMONTON       FLURRIES  14   9  79 NW7       29.80R WCI   4
CALGARY        MOSUNNY   19   9  63 N7        29.73R WCI  10
LETHBRIDGE     LGT SNOW  18  14  86 N6        29.76R VSB 1   WCI   9
MEDICINE HAT   PTSUNNY   21  12  68 N6        29.78R WCI  14
WATERTON GATE    N/A     16   9  73 NE6         N/A  WCI   7
CARDSTON         N/A     19  10  68 N6          N/A  WCI  11
MILK RIVER       N/A     18  14  86 N13         N/A  WCI   4
$$

REGIONAL REPORTS...SASKATCHEWAN

CITY           SKY/WX    TMP DP  RH WIND       PRES   REMARKS
SWIFT CURRENT  SUNNY     19  14  79 NW6       29.72R WCI  11
REGINA         LGT SNOW  12   7  79 SE13      29.81S DRFTSNOWWCI  -3
SASKATOON      FLURRIES  18   9  68 VRB2      29.83S
CYPRESS HILLS    N/A     14  10  85 N6          N/A  WCI   5
VAL MARIE        N/A     23  16  74 N8          N/A  WCI  14
ASSINIBOIA       N/A     18   7  62 N5          N/A
$$




USA.gov is the U.S. government's official web portal to all federal, state and local government web resources and services.